Regional Weather Roundup
Issued by NWS

Home | Current Version | Previous Version | Graphics & Text | Print | Product List | Glossary On
Versions: 1 2 3 4 5 6 7 8 9 10 11 12 13 14 15 16 17 18 19 20 21 22 23 24 25 26 27 28 29 30 31 32 33 34 35 36 37 38 39 40 41 42 43 44 45 46 47 48 49 50
000
ASUS43 KOAX 201602
RWRNE

WEATHER ROUNDUP FOR NEBRASKA
NATIONAL WEATHER SERVICE OMAHA NE
1100 AM CDT MON OCT 20 2014

NOTES: SATELLITE DATA IS BEING USED TO AUGMENT CLOUD COVER ABOVE
       12000 FEET.
       "FAIR" INDICATES FEW OR NO CLOUDS BELOW 12,000 FEET WITH NO
       SIGNIFICANT WEATHER AND/OR OBSTRUCTIONS TO VISIBILITY.

  * THESE STATIONS DO NOT REPORT WEATHER SUCH AS RAIN...SNOW OR FOG.

NEZ001>004-019>022-054>056-201700-
NEBRASKA PANHANDLE

CITY           SKY/WX    TMP DP  RH WIND       PRES   REMARKS
SCOTTSBLUFF    SUNNY     55  41  59 SE7       30.12S
ALLIANCE       SUNNY     61  43  51 S9        30.12S
CHADRON        SUNNY     55  43  63 CALM      30.07S
KIMBALL        SUNNY     65  36  33 S16       30.14S
SIDNEY         SUNNY     64  42  44 S17       30.16R
$$

NEZ057>060-069>072-079>082-201700-
SOUTHWEST NEBRASKA

CITY           SKY/WX    TMP DP  RH WIND       PRES   REMARKS
NORTH PLATTE   SUNNY     55  41  59 CALM      30.16R
IMPERIAL       SUNNY     62  43  49 CALM      30.16S
LEXINGTON      SUNNY     60  45  57 CALM      30.14S
MCCOOK         SUNNY     56  43  61 VRB3      30.16R
OGALLALA       SUNNY     55  41  59 CALM      30.15S
$$

NEZ005>010-023>029-035>040-094-201700-
NORTH CENTRAL NEBRASKA

CITY           SKY/WX    TMP DP  RH WIND       PRES   REMARKS
VALENTINE      SUNNY     59  40  49 CALM      30.12F
AINSWORTH      SUNNY     62  41  45 SE6       30.13F
BROKEN BOW     SUNNY     62  44  51 VRB3      30.14S
O`NEILL        SUNNY     60  45  57 CALM      30.14S
ORD            SUNNY     58  41  53 CALM      30.14S
THEDFORD       SUNNY     63  41  44 SE5       30.14S
$$

NEZ041-046>049-061>064-073>077-083>087-201700-
SOUTH CENTRAL NEBRASKA

CITY           SKY/WX    TMP DP  RH WIND       PRES   REMARKS
GRAND ISLAND   SUNNY     59  42  53 E5        30.15R
AURORA         SUNNY     60  40  46 CALM      30.15R
HASTINGS       SUNNY     61  42  49 E9        30.13S
HEBRON         SUNNY     61  44  54 NE6       30.12S
HOLDREGE       SUNNY     59  44  58 CALM      30.14S
KEARNEY *      SUNNY     59  45  58 NE9       30.15S
YORK           SUNNY     61  45  55 E6        30.13S
$$

NEZ011>018-030>034-042>045-201700-
NORTHEAST NEBRASKA

CITY           SKY/WX    TMP DP  RH WIND       PRES   REMARKS
NORFOLK        SUNNY     59  43  55 W3        30.13R
ALBION         SUNNY     58  43  57 CALM      30.14S
BLAIR          SUNNY     61  44  54 CALM      30.10S
COLUMBUS *     SUNNY     61  39  44 CALM      30.15R
FREMONT        SUNNY     60  43  53 CALM      30.12S
TEKAMAH        SUNNY     62  44  51 N6        30.10F
WAYNE          SUNNY     60  44  54 CALM      30.12S
$$

NEZ050>053-065>068-078-088>093-201700-
SOUTHEAST NEBRASKA

CITY           SKY/WX    TMP DP  RH WIND       PRES   REMARKS
LINCOLN        SUNNY     62  45  53 NE5       30.13R
OMAHA EPPLEY   SUNNY     59  45  59 N7        30.10F
BEATRICE       SUNNY     62  44  51 E7        30.11R
FALLS CITY     SUNNY     64  46  52 E8        30.08R
NEBRASKA CITY  SUNNY     62  39  43 E5        30.10S
PLATTSMOUTH    SUNNY     59  44  57 N3        30.10R
$$

NEZ044-045-051>053-067-201700-
OMAHA AREA

CITY           SKY/WX    TMP DP  RH WIND       PRES   REMARKS
OMAHA EPPLEY   SUNNY     59  45  59 N7        30.10F
BLAIR          SUNNY     61  44  54 CALM      30.10S
FREMONT        SUNNY     60  43  53 CALM      30.12S
MILLARD        SUNNY     60  45  57 N3        30.10S
OFFUTT AFB     SUNNY     61  49  64 NE2       30.10R
PLATTSMOUTH    SUNNY     59  44  57 N3        30.10R
WAHOO          FAIR      60  42  52 CALM      30.12R
$$


USA.gov is the U.S. government's official web portal to all federal, state and local government web resources and services.